Location: Buisson
(44.2787°N, 4.9969°E)
Time: 02:28:18
(UTC+00:00)

Nadezhda 3 Rocket - Pass Details

Date: 18 April 2021
Orbit: 956 x 1000 km, 82.9° (Epoch: 07 May)

Event Time Altitude Azimuth Distance (km) Brightness Sun altitude
Exits shadow 02:08:10 42° 168° (SSE) 1,392 4.5 -25.4°
Maximum altitude 02:10:26 73° 95° (E) 1,041 4.1 -25.1°
Drops below altitude 10° 02:16:46 10° 12° (NNE) 2,765 7.1 -24.3°
Sets 02:19:17 0° 10° (N) 3,712 7.9 -24.0°
